Flag for Germany Weather past 2 weeks in Mönchengladbach, North Rhine-Westphalia, Germany

Now
59 °F

Light rain. Partly cloudy.


Feels Like: 57 °F
Forecast: 49 / 59 °F
Wind: 12 mph from West

Location: Monchengladbach Airport

Current Time: Sep 5, 2015 at 2:52:07 PM

Latest Report: Sep 5, 2015 at 2:20 PM


Visibility: 4 mi

Pressure: 30.01 "Hg

Humidity: 88%

Dew point: 55 °F

Location of MönchengladbachLocation

Historic Weather in Mönchengladbach — Graph

°F

Mönchengladbach temperature yesterday

Maximum temperature yesterday: 63 °F (at 1:50 PM)
Minimum temperature yesterday: 52 °F (at 7:50 AM)
Average temperature yesterday: 59 °F

Past Weeks' High & Low Weather Summary

 TemperatureHumidityPressure
High90 °F (Aug 30, 3:20 PM)100% (Aug 24, 7:50 AM)30.24 "Hg (Aug 24, 7:50 AM)
Low50 °F (Sep 2, 7:20 AM)33% (Aug 31, 4:50 PM)29.50 "Hg (Aug 24, 4:20 PM)
Average68 °F70%29.93 "Hg
* Reported Aug 21 1:20 PM — Sep 5 1:20 PM, Mönchengladbach, Weather by CustomWeather, © 2015

Note: Actual official high and low records may vary slightly from our data, if they occured in-between our weather recording intervals... More about our weather records

Advertising

Mönchengladbach weather history for previous 24 hours

 ConditionsComfort  
Time TempWeatherWind HumidityBarometerVisibility
1:20 PM
Sat, Sep 5
57 °FSprinkles. Passing clouds.14 mph88%30.01 "Hg4 mi
12:20 PM57 °FDrizzle. Partly sunny.12 mph88%30.01 "Hg3 mi
11:50 AM59 °FPartly sunny.9 mph77%30.01 "HgN/A
11:20 AM59 °FPassing clouds.13 mph77%30.01 "HgN/A
10:50 AM59 °FPartly sunny.12 mph82%30.01 "HgN/A
10:20 AM59 °FScattered clouds.9 mph82%29.98 "HgN/A
9:50 AM57 °FScattered clouds.9 mph94%29.98 "HgN/A
9:20 AM57 °FScattered clouds.8 mph100%29.98 "HgN/A
8:50 AM55 °FScattered clouds.6 mph100%29.98 "Hg4 mi
8:20 AM55 °FScattered clouds.7 mph100%29.98 "Hg4 mi
7:50 AM55 °FRain. Fog.5 mph100%29.98 "Hg2 mi
8:20 PM
Fri, Sep 4
57 °FPassing clouds.8 mph77%29.92 "HgN/A
7:50 PM59 °FClear.8 mph72%29.92 "Hg10 mi
6:50 PM59 °FClear.9 mph63%29.92 "Hg10 mi
6:20 PM61 °FClear.14 mph59%29.92 "Hg10 mi
5:50 PM61 °FPassing clouds.10 mph59%29.92 "HgN/A
5:20 PM61 °FPassing clouds.8 mph63%29.95 "HgN/A
4:50 PM61 °FPassing clouds.8 mph68%29.95 "HgN/A
4:20 PM59 °FPassing clouds.8 mph72%29.95 "HgN/A
3:50 PM59 °FPassing clouds.8 mph68%29.95 "HgN/A
3:20 PM61 °FPassing clouds.13 mph63%29.95 "HgN/A
2:50 PM61 °FPassing clouds.18 mph63%29.95 "HgN/A
2:20 PM61 °FPassing clouds.13 mph63%29.95 "HgN/A
Weather by CustomWeather, © 2015

See weather overviewHow to use our weather pages